Home   Weather   Lakselv   Past weeks
Flag for Norway

Past Weather in Lakselv, Norway — Yesterday and Last 2 Weeks

Now
39 °F

Light rain. Passing clouds.


Feels Like: 32 °F
Forecast: 44 / 36 °F
Wind: 12 mph from Northwest

Location: Banak

Current Time: Sep 23, 2019 at 10:00:15 pm

Latest Report: Sep 23, 2019 at 9:20 pm


Visibility: N/A

Pressure: 30.12 "Hg

Humidity: 81%

Dew Point: 34 °F

Location of LakselvLocation

Past Weather in Lakselv — Graph

°F

Lakselv Temperature Yesterday

Maximum temperature yesterday: 43 °F (at 11:50 am)
Minimum temperature yesterday: 39 °F (at 12:20 am)
Average temperature yesterday: 40 °F

High & Low Weather Summary for the Past Weeks

 TemperatureHumidityPressure
High66 °F (Sep 10, 2:50 pm)100% (Sep 9, 11:20 pm)30.18 "Hg (Sep 9, 11:20 pm)
Low28 °F (Sep 15, 11:20 pm)40% (Sep 10, 3:20 pm)29.33 "Hg (Sep 12, 8:20 pm)
Average46 °F76%29.78 "Hg
* Reported Sep 8 8:20 pm — Sep 23 8:20 pm, Lakselv. Weather by CustomWeather, © 2019

Note: Actual official high and low records may vary slightly from our data, if they occured in-between our weather recording intervals... More about our weather records

Advertising

Lakselv Weather History for the Previous 24 Hours

Scroll right to see more
 ConditionsComfort  
Time TempWeatherWind HumidityBarometerVisibility
8:20 pm
Mon, Sep 23
39 °FScattered showers. Partly cloudy.12 mph81%30.12 "HgN/A
7:50 pm39 °FLight rain. Partly cloudy.14 mph81%30.12 "HgN/A
7:20 pm39 °FScattered showers. Passing clouds.12 mph81%30.12 "HgN/A
6:50 pm39 °FScattered showers. Partly cloudy.14 mph81%30.12 "HgN/A
6:20 pm39 °FLight rain. Partly cloudy.17 mph81%30.12 "HgN/A
5:50 pm41 °FBroken clouds.13 mph70%30.15 "HgN/A
5:20 pm41 °FPartly sunny.14 mph76%30.15 "HgN/A
4:50 pm39 °FScattered showers. Scattered clouds.15 mph75%30.15 "HgN/A
4:20 pm41 °FScattered showers. Partly sunny.16 mph76%30.15 "HgN/A
3:50 pm39 °FLight rain. Partly sunny.18 mph81%30.15 "HgN/A
3:20 pm41 °FLight rain. Partly sunny.14 mph76%30.15 "HgN/A
2:50 pm41 °FScattered showers. Partly sunny.14 mph70%30.15 "HgN/A
2:20 pm43 °FScattered showers. Partly sunny.13 mph66%30.15 "HgN/A
1:50 pm39 °FScattered showers. More clouds than sun.18 mph81%30.15 "HgN/A
1:20 pm43 °FScattered showers. Partly sunny.18 mph66%30.15 "HgN/A
12:50 pm43 °FPartly sunny.17 mph71%30.15 "HgN/A
12:20 pm41 °FScattered showers. Broken clouds.17 mph76%30.15 "HgN/A
11:50 am41 °FLight rain. Broken clouds.15 mph76%30.15 "HgN/A
11:20 am41 °FScattered showers. Partly sunny.12 mph81%30.15 "HgN/A
10:50 am41 °FScattered showers. Partly sunny.17 mph70%30.15 "HgN/A
10:20 am41 °FScattered showers. Broken clouds.15 mph70%30.15 "HgN/A
9:50 am41 °FBroken clouds.14 mph70%30.15 "HgN/A
9:20 am41 °FPartly sunny.17 mph70%30.15 "HgN/A
8:50 am39 °FBroken clouds.17 mph75%30.18 "HgN/A
8:20 am39 °FScattered showers. Partly sunny.13 mph75%30.18 "HgN/A
7:50 am39 °FPartly sunny.15 mph75%30.18 "HgN/A
7:20 am39 °FPartly sunny.12 mph70%30.18 "HgN/A
6:50 am39 °FPartly sunny.15 mph70%30.18 "HgN/A
6:20 am37 °FPartly sunny.12 mph75%30.18 "HgN/A
5:50 am39 °FPassing clouds.12 mph70%30.18 "HgN/A
5:20 am39 °FOvercast.14 mph70%30.18 "HgN/A
4:50 am39 °FMostly cloudy.17 mph70%30.18 "HgN/A
4:20 am39 °FOvercast.15 mph70%30.18 "HgN/A
3:50 am39 °FMostly cloudy.13 mph70%30.18 "HgN/A
3:20 am39 °FOvercast.16 mph70%30.18 "HgN/A
2:50 am39 °FMostly cloudy.15 mph75%30.18 "HgN/A
2:20 am39 °FOvercast.16 mph75%30.18 "HgN/A
1:50 am39 °FOvercast.17 mph75%30.18 "HgN/A
1:20 am39 °FOvercast.18 mph70%30.18 "HgN/A
12:50 am39 °FMostly cloudy.15 mph75%30.18 "HgN/A
12:20 am39 °FMostly cloudy.16 mph75%30.18 "HgN/A
11:50 pm
Sun, Sep 22
39 °FMostly cloudy.21 mph75%30.18 "HgN/A
11:20 pm39 °FPartly cloudy.21 mph75%30.18 "HgN/A
10:50 pm39 °FPassing clouds.17 mph75%30.18 "HgN/A
10:20 pm39 °FPartly cloudy.14 mph75%30.18 "HgN/A
Weather by CustomWeather, © 2019

See weather overview